Wind_Speed
31 34 37 44 40 35 40 48 52 47 50 52 52 56 52 52 58 64 68 66 63 60 59 62 69 72 71 73 68 51 45 48 54 57 61 61 63 65 69 72 73 74 79 81 84 86 90 91 91
40 35 36 40 42 40 48 52 54 51 53 53 54 54 54 56 61 67 69 68 68 63 64 67 74 78 74 75 64 50 50 54 53 53 56 58 61 66 70 77 79 81 80 83 87 90 91 94 96
45 45 47 41 49 49 51 53 51 53 56 54 54 54 57 63 66 67 66 69 64 61 64 73 78 78 79 69 66 54 56 57 54 55 57 60 62 67 71 75 81 82 82 85 91 94 94 96 97
53 51 51 52 48 51 55 53 53 55 57 59 57 51 60 67 69 72 70 75 67 63 66 74 81 85 76 73 57 56 54 54 56 59 62 64 68 69 74 78 82 82 84 87 88 92 95 94 96
57 53 54 52 50 49 51 53 59 59 61 63 64 58 57 63 70 73 78 73 62 66 77 82 87 83 74 60 52 56 55 55 59 60 62 63 66 72 76 79 83 85 82 84 84 87 94 95 95
58 56 53 53 56 56 54 56 60 62 65 68 68 65 62 66 71 75 74 64 67 76 82 87 84 80 62 52 50 52 53 59 59 58 60 64 68 72 76 79 81 83 82 80 81 80 85 91 94
63 57 55 58 59 58 58 55 59 61 64 68 71 68 66 70 76 73 65 67 76 82 88 87 84 71 54 47 44 47 49 52 53 59 63 68 73 73 74 75 75 75 75 73 74 77 80 84 88
65 57 58 57 58 61 60 57 61 64 69 72 70 67 72 74 78 73 70 71 77 89 89 89 74 62 52 45 45 55 62 60 61 67 71 70 67 65 63 64 63 62 63 64 67 69 75 80 82
65 63 63 62 64 62 59 64 65 70 72 76 71 68 75 81 76 67 69 75 79 82 87 72 60 56 52 47 45 59 59 66 68 70 66 62 58 58 59 57 54 53 54 55 59 63 68 73 76
67 65 67 68 65 63 66 68 68 71 77 79 78 71 79 63 65 75 84 84 82 79 84 58 58 56 53 58 63 66 64 63 66 65 58 53 52 55 55 51 47 47 46 46 50 52 59 64 68
74 70 69 68 66 67 70 69 73 74 79 80 75 76 75 73 72 79 81 80 81 86 66 58 57 56 56 60 66 64 60 61 62 52 47 47 49 50 51 44 39 37 37 41 45 46 52 57 59
79 67 67 70 69 71 72 73 77 76 79 76 72 72 71 74 80 81 81 84 84 71 57 61 58 55 52 55 57 58 60 59 51 43 42 38 45 46 44 37 31 27 31 36 39 38 44 48 55
77 72 70 67 70 76 75 75 73 74 78 73 69 72 69 73 76 81 83 86 77 63 59 60 61 60 56 54 57 57 52 45 43 39 32 35 40 38 36 29 24 23 28 31 31 31 38 42 50
70 63 64 67 71 75 74 74 70 75 75 68 62 71 75 79 82 86 80 78 61 60 57 57 57 57 52 51 50 48 42 41 38 33 31 33 36 33 32 26 22 21 24 27 27 28 33 40 45
65 64 64 68 71 72 71 64 65 70 73 70 70 72 79 83 90 81 74 63 58 55 53 52 54 51 48 48 44 37 36 32 32 28 29 30 33 28 26 21 20 16 20 22 25 26 31 36 39
63 59 59 64 63 64 68 60 66 70 71 67 74 82 80 83 75 64 61 59 57 51 50 52 48 44 46 42 34 32 27 25 28 26 25 27 27 25 21 18 17 12 14 19 21 25 28 32 37
63 62 62 62 62 62 63 62 65 63 70 76 78 79 79 84 67 62 57 52 47 44 46 45 44 45 42 31 30 24 18 23 26 23 23 24 25 24 19 15 13 10 11 15 17 24 28 33 34
63 60 55 51 55 59 61 62 66 67 68 69 72 79 83 58 52 53 51 46 44 43 42 41 44 40 31 28 25 17 16 18 19 20 21 25 25 25 17 12 11 7 9 13 16 21 26 32 32
59 49 45 57 62 62 68 70 67 65 68 68 79 79 60 51 51 53 49 46 38 40 40 43 41 30 27 27 17 13 15 16 19 23 23 23 24 24 15 10 9 7 10 13 17 20 26 33 37
50 49 57 58 60 58 64 65 66 62 66 71 76 59 53 53 55 49 42 41 40 37 40 40 32 26 27 20 12 10 16 19 24 24 26 19 20 21 13 7 6 6 9 13 17 22 28 32 34
54 55 61 61 65 68 71 65 61 63 65 66 50 43 44 50 50 40 37 38 36 35 37 30 25 26 23 15 11 10 11 16 15 20 21 21 16 19 14 3 4 4 11 16 19 24 28 31 32
67 69 64 63 65 66 65 54 57 58 62 51 38 30 37 45 41 36 35 34 33 33 30 23 25 24 16 8 8 8 5 10 17 19 22 18 16 14 14 2 1 5 11 16 20 24 25 29 34
66 69 69 68 67 62 59 55 61 59 52 33 26 27 33 37 35 33 31 30 30 28 21 23 25 20 11 7 2 2 6 16 18 22 22 17 17 19 9 3 5 7 13 17 21 25 25 29 39
70 70 68 70 66 59 65 56 62 55 34 28 20 25 30 29 28 25 26 27 28 19 20 23 22 13 11 6 4 5 9 16 23 27 20 17 19 17 9 7 9 10 13 18 23 26 28 34 44
68 69 65 57 55 59 63 58 57 33 27 21 19 25 27 26 24 23 24 24 21 17 20 21 18 10 10 5 10 10 12 17 23 27 17 16 19 13 10 9 12 14 15 19 26 27 28 35 42
70 69 64 59 60 66 62 41 25 25 17 18 22 25 26 25 22 22 22 22 15 17 20 21 15 10 4 8 13 7 10 17 18 21 14 13 13 14 16 14 17 17 18 19 25 26 26 34 44
63 60 56 62 62 52 32 20 24 12 13 18 23 27 28 20 20 20 23 18 14 18 20 20 13 9 4 11 11 10 13 13 17 22 12 15 12 17 17 17 20 20 18 17 22 28 30 33 41
66 60 58 48 36 27 19 22 13 8 8 15 21 24 29 22 21 22 22 20 14 17 19 19 12 8 4 15 12 12 12 12 19 24 16 14 11 11 16 21 21 19 18 21 19 21 24 27 34
56 43 36 36 28 23 23 22 11 8 7 15 21 23 26 27 22 24 23 19 15 16 18 17 10 7 4 13 16 14 15 9 14 22 24 14 11 14 20 21 20 16 16 18 20 22 24 27 33
43 41 42 37 26 24 24 15 13 9 7 14 20 22 26 33 25 25 23 18 12 15 17 15 10 5 6 16 19 14 16 11 15 18 26 14 13 17 16 17 21 19 19 17 18 22 26 29 33
Wind_Direction
271 290 294 289 284 282 293 299 300 308 305 304 306 305 306 309 314 314 313 315 310 301 303 311 314 313 315 313 318 301 282 280 275 270 271 272 267 261 255 255 254 252 248 247 244 241 236 232 230
275 281 291 284 278 285 297 298 300 300 303 301 306 307 305 307 311 311 312 314 306 299 307 310 313 314 314 312 313 290 277 285 282 276 274 272 269 263 258 254 253 253 250 247 245 244 240 235 231
275 280 288 286 281 288 289 293 297 296 299 300 300 307 304 307 304 311 309 311 301 299 307 310 313 315 314 313 309 291 286 287 283 281 278 272 268 264 261 256 253 254 253 251 248 244 243 241 234
275 280 292 297 289 293 287 293 293 297 296 296 298 301 304 304 305 308 304 303 296 300 310 310 314 315 316 314 296 289 287 282 282 280 280 278 274 270 263 261 257 254 255 252 249 247 245 244 242
279 280 292 298 293 295 292 293 295 296 296 295 296 298 303 301 304 303 304 298 296 309 310 313 312 313 315 305 294 289 285 282 285 285 281 278 274 269 266 263 261 260 258 258 255 251 248 244 242
279 282 289 290 293 295 295 298 298 295 299 296 295 295 300 301 299 302 300 299 309 311 313 310 317 315 309 296 291 289 285 284 287 285 281 277 273 270 266 265 264 264 264 261 257 251 247 245 242
275 278 284 287 290 294 294 295 294 295 297 297 298 296 297 300 302 302 290 299 311 312 313 314 313 313 306 292 291 294 290 285 285 284 284 286 284 281 277 274 271 268 266 260 255 250 246 243 240
277 273 275 280 287 289 291 294 293 293 294 294 295 295 297 299 300 292 290 300 311 311 311 314 312 314 308 298 301 304 306 301 301 301 295 292 289 287 284 279 275 270 265 260 254 248 243 241 237
275 273 276 282 286 288 289 297 295 295 294 296 293 292 297 297 296 296 304 309 309 311 316 308 312 310 301 303 289 297 299 300 301 297 296 295 293 289 286 284 280 272 264 257 250 246 241 238 236
273 274 277 282 283 285 289 294 297 294 295 294 291 294 295 293 295 307 311 309 310 313 314 310 307 306 305 297 294 304 300 300 300 300 299 298 295 292 289 287 281 273 266 257 250 245 239 234 232
275 277 276 280 281 283 288 291 298 296 295 293 295 294 293 288 304 311 307 310 315 314 309 307 307 305 298 288 291 297 301 302 302 300 301 299 294 292 289 285 280 269 261 252 250 241 235 230 227
272 275 278 280 280 282 286 291 298 296 289 291 291 289 287 305 307 308 308 314 312 308 305 307 306 305 304 303 304 304 304 305 302 305 302 296 292 291 291 290 282 273 260 249 247 238 232 224 222
273 275 274 277 279 283 287 293 293 289 290 286 283 287 296 305 312 312 314 311 313 305 306 307 305 304 306 305 304 305 306 304 305 307 301 291 294 295 295 293 285 279 262 250 241 232 221 217 217
271 272 273 275 279 282 287 291 286 287 284 281 300 299 301 311 314 311 311 308 302 302 301 301 305 306 307 305 305 307 308 305 309 302 295 297 302 300 295 295 286 274 259 246 235 225 215 212 211
268 270 273 276 277 282 284 282 279 280 278 282 287 305 312 315 314 311 307 303 305 305 305 304 304 305 308 310 312 309 306 304 301 297 297 300 304 305 296 295 286 266 254 242 228 220 212 209 205
268 271 275 275 279 282 282 276 274 277 283 292 302 301 306 311 314 309 305 305 307 304 303 303 307 310 311 312 311 308 303 301 301 300 293 302 312 313 301 301 290 267 252 236 223 215 212 206 202
267 273 277 278 277 277 279 271 271 282 293 297 298 301 304 308 303 304 309 306 301 301 302 306 310 313 313 314 310 303 296 300 308 305 305 313 319 320 309 302 294 272 244 230 213 211 205 203 200
273 275 277 275 272 272 268 268 277 286 296 299 306 306 305 303 305 304 309 306 303 305 306 312 313 315 315 312 305 299 306 304 325 329 325 320 319 323 309 307 298 268 231 215 203 198 198 198 199
271 272 269 262 261 263 268 274 282 286 299 305 301 309 305 305 305 309 308 307 307 307 310 313 315 317 318 312 293 309 310 315 325 329 324 322 318 327 315 301 293 259 213 204 191 190 190 193 195
269 262 258 257 264 268 278 289 293 300 305 307 308 307 308 306 306 306 306 309 309 309 311 315 315 320 317 306 285 298 305 322 331 331 335 325 327 330 328 294 280 237 195 190 187 183 185 188 193
251 254 255 257 270 276 278 289 297 304 308 309 305 304 305 303 303 304 306 310 310 312 313 315 319 319 314 302 275 286 315 319 342 335 346 353 331 338 343 308 262 206 180 178 175 182 180 188 186
252 260 261 264 267 275 282 298 300 307 304 304 299 315 303 299 301 303 308 317 316 314 316 317 320 321 312 279 274 286 341 343 330 345 344 347 332 352 353 5 170 175 166 171 173 179 180 183 183
251 256 260 262 266 280 288 295 296 304 303 289 303 308 295 296 309 311 320 319 316 319 319 321 319 322 316 262 314 267 20 350 7 351 336 352 0 8 5 67 126 160 157 162 170 175 173 177 168
252 256 263 269 274 284 284 295 297 297 285 288 318 311 307 304 312 325 322 317 323 325 325 323 321 319 312 264 168 91 45 23 360 357 357 10 7 14 58 91 122 141 154 155 168 170 171 174 170
258 266 267 274 279 281 280 294 294 274 275 303 317 332 329 320 322 329 323 324 330 328 332 327 326 326 308 219 145 98 46 21 357 3 10 21 17 24 52 99 117 129 146 155 162 169 174 172 170
256 260 268 276 279 281 284 279 267 270 293 318 335 343 339 338 337 335 336 338 334 330 336 334 339 329 304 172 145 110 57 34 359 9 19 25 11 34 87 103 106 131 139 148 156 162 165 170 171
261 264 270 272 278 276 259 246 250 285 318 339 340 346 354 345 353 348 352 342 334 333 342 340 338 323 246 168 140 110 75 40 6 8 20 20 20 45 92 109 116 123 132 141 158 166 165 168 174
265 270 273 271 248 232 227 238 242 272 319 336 338 349 359 357 3 359 354 342 322 336 345 342 332 311 215 180 154 115 68 47 26 17 18 31 18 78 103 120 119 131 136 141 156 170 166 168 178
261 259 250 231 222 224 231 229 245 247 309 338 343 353 1 8 5 1 354 348 329 338 348 339 334 311 220 177 148 119 76 63 37 24 20 28 64 94 115 112 108 114 126 129 147 157 162 170 176
237 227 221 212 211 218 225 219 228 265 311 325 345 356 6 10 1 359 358 357 347 351 349 340 329 308 215 165 151 122 86 56 49 23 26 49 92 85 101 103 112 109 113 123 140 151 158 165 170
Height
10936 10934 10934 10931 10931 10928 10926 10922 10922 10925 10923 10920 10916 10911 10913 10908 10899 10892 10889 10889 10886 10883 10876 10868 10865 10861 10856 10850 10844 10840 10840 10839 10837 10835 10834 10834 10833 10833 10834 10835 10835 10834 10836 10838 10841 10845 10853 10862 10870
10928 10929 10928 10924 10924 10923 10917 10916 10914 10915 10915 10914 10910 10906 10902 10898 10892 10883 10881 10878 10872 10868 10857 10854 10851 10849 10842 10837 10832 10830 10828 10826 10824 10823 10822 10820 10818 10817 10818 10818 10818 10817 10819 10821 10823 10827 10833 10843 10853
10920 10921 10921 10919 10916 10916 10913 10910 10907 10907 10906 10904 10903 10901 10896 10888 10880 10877 10873 10870 10868 10861 10851 10840 10837 10833 10829 10823 10819 10816 10814 10813 10809 10808 10807 10805 10803 10800 10799 10799 10802 10801 10801 10803 10805 10808 10815 10823 10834
10914 10914 10914 10912 10908 10908 10902 10903 10901 10898 10893 10896 10897 10896 10887 10879 10868 10862 10859 10855 10853 10849 10846 10834 10825 10820 10813 10809 10805 10802 10800 10798 10796 10794 10792 10789 10787 10784 10782 10779 10779 10781 10781 10779 10784 10790 10797 10804 10813
10906 10906 10904 10904 10899 10898 10897 10895 10890 10889 10887 10886 10885 10886 10882 10875 10862 10854 10847 10842 10842 10835 10831 10823 10817 10808 10801 10795 10791 10788 10786 10784 10781 10778 10775 10772 10769 10765 10763 10760 10758 10757 10759 10761 10765 10771 10776 10784 10793
10899 10900 10897 10895 10890 10889 10888 10886 10884 10880 10876 10873 10871 10874 10871 10863 10852 10847 10839 10830 10825 10823 10814 10809 10799 10793 10787 10783 10779 10776 10773 10770 10764 10761 10756 10752 10747 10744 10741 10739 10736 10735 10736 10739 10740 10746 10753 10761 10772
10889 10893 10888 10886 10884 10875 10878 10883 10874 10874 10870 10861 10857 10859 10859 10850 10841 10838 10833 10824 10814 10805 10803 10794 10787 10781 10776 10770 10765 10760 10757 10754 10752 10745 10738 10732 10726 10720 10718 10716 10713 10712 10710 10713 10716 10721 10730 10738 10750
10880 10884 10880 10878 10879 10869 10867 10872 10867 10862 10860 10856 10853 10847 10842 10836 10831 10828 10825 10815 10804 10795 10790 10777 10771 10764 10761 10757 10749 10744 10738 10736 10733 10728 10720 10712 10707 10701 10695 10691 10690 10689 10689 10690 10692 10698 10706 10714 10727
10869 10871 10870 10869 10870 10865 10859 10856 10857 10853 10849 10845 10841 10839 10832 10822 10818 10814 10807 10804 10797 10787 10778 10765 10758 10756 10752 10746 10742 10737 10730 10721 10716 10711 10703 10695 10689 10683 10677 10673 10671 10669 10668 10669 10671 10677 10684 10693 10706
10857 10862 10859 10858 10860 10859 10853 10850 10847 10843 10838 10835 10834 10831 10821 10814 10804 10800 10792 10783 10782 10778 10769 10758 10751 10744 10737 10733 10729 10724 10717 10708 10699 10692 10684 10679 10673 10666 10661 10657 10654 10651 10651 10652 10654 10660 10664 10675 10689
10846 10854 10849 10847 10850 10850 10846 10842 10838 10833 10827 10820 10822 10814 10811 10803 10796 10782 10783 10776 10766 10760 10755 10748 10741 10732 10727 10723 10717 10711 10702 10695 10685 10679 10672 10667 10660 10654 10648 10644 10640 10638 10638 10638 10639 10644 10650 10662 10675
10837 10843 10840 10839 10839 10839 10837 10834 10829 10824 10816 10813 10807 10804 10799 10791 10782 10775 10766 10763 10756 10746 10741 10738 10730 10722 10714 10707 10703 10696 10690 10679 10672 10667 10661 10656 10650 10644 10636 10631 10629 10628 10626 10626 10629 10633 10640 10651 10662
10830 10832 10829 10831 10829 10828 10827 10824 10821 10813 10809 10805 10796 10790 10788 10784 10775 10763 10750 10747 10741 10734 10728 10723 10716 10709 10704 10698 10691 10683 10678 10670 10663 10657 10651 10647 10640 10634 10626 10623 10620 10618 10616 10617 10621 10626 10631 10641 10649
10816 10821 10821 10820 10819 10817 10818 10814 10807 10802 10798 10796 10786 10776 10773 10769 10764 10754 10742 10736 10730 10724 10721 10716 10708 10699 10694 10689 10681 10673 10667 10660 10655 10650 10644 10638 10631 10625 10618 10615 10613 10612 10609 10610 10614 10618 10624 10631 10641
10806 10811 10810 10810 10808 10806 10807 10802 10797 10795 10788 10785 10781 10774 10764 10757 10752 10743 10731 10724 10721 10713 10707 10704 10698 10690 10683 10677 10671 10665 10660 10654 10649 10644 10638 10634 10627 10620 10612 10609 10606 10604 10603 10604 10607 10612 10619 10626 10636
10795 10799 10801 10794 10798 10793 10792 10794 10786 10783 10776 10775 10769 10763 10759 10754 10742 10733 10723 10713 10708 10706 10700 10694 10689 10682 10675 10669 10664 10658 10653 10648 10643 10639 10634 10628 10620 10613 10607 10603 10601 10599 10598 10599 10603 10608 10614 10623 10630
10777 10789 10791 10785 10786 10781 10782 10785 10777 10774 10766 10763 10761 10757 10750 10745 10734 10727 10718 10708 10702 10698 10693 10686 10679 10673 10667 10662 10657 10653 10649 10644 10638 10633 10629 10623 10616 10608 10603 10599 10596 10596 10595 10597 10600 10604 10611 10619 10626
10774 10778 10778 10773 10773 10772 10773 10775 10767 10765 10760 10755 10749 10745 10740 10735 10725 10719 10712 10702 10695 10690 10684 10678 10672 10667 10661 10656 10652 10649 10645 10641 10635 10630 10626 10619 10612 10605 10600 10595 10592 10592 10592 10594 10597 10601 10608 10616 10625
10763 10766 10768 10764 10761 10766 10762 10764 10762 10757 10750 10747 10741 10734 10729 10722 10716 10709 10701 10694 10688 10682 10676 10672 10666 10661 10656 10651 10647 10644 10640 10636 10632 10627 10622 10616 10609 10603 10597 10593 10590 10591 10591 10592 10595 10599 10605 10612 10618
10751 10755 10756 10756 10752 10759 10754 10751 10748 10745 10742 10738 10732 10725 10718 10714 10707 10701 10695 10688 10682 10676 10671 10666 10661 10656 10652 10647 10644 10642 10637 10634 10629 10624 10618 10613 10607 10601 10594 10592 10590 10590 10590 10592 10595 10599 10603 10611 10619
10740 10743 10742 10747 10746 10745 10745 10740 10740 10736 10732 10732 10726 10721 10715 10709 10701 10694 10688 10682 10676 10670 10665 10660 10656 10653 10648 10644 10642 10640 10637 10633 10628 10622 10616 10611 10606 10600 10592 10591 10589 10590 10590 10592 10595 10599 10606 10613 10620
10729 10726 10734 10739 10738 10738 10738 10732 10733 10731 10727 10729 10722 10717 10708 10700 10694 10688 10682 10676 10670 10665 10660 10656 10653 10649 10645 10642 10640 10639 10636 10632 10626 10621 10615 10609 10604 10599 10592 10589 10589 10590 10592 10592 10595 10599 10606 10613 10621
10719 10719 10725 10727 10728 10729 10726 10729 10727 10725 10722 10722 10718 10710 10703 10696 10688 10681 10675 10670 10665 10661 10657 10654 10650 10646 10643 10640 10639 10638 10635 10631 10627 10621 10615 10608 10603 10597 10592 10589 10589 10590 10590 10593 10597 10602 10608 10614 10622
10703 10708 10713 10715 10720 10721 10716 10722 10720 10716 10718 10714 10713 10703 10694 10690 10683 10677 10671 10666 10661 10658 10654 10651 10647 10643 10641 10638 10638 10638 10635 10630 10626 10621 10615 10609 10604 10597 10593 10590 10590 10591 10592 10595 10598 10604 10609 10616 10623
10696 10698 10700 10708 10711 10706 10715 10714 10713 10709 10712 10708 10706 10698 10689 10684 10678 10672 10667 10663 10659 10656 10653 10648 10644 10640 10638 10637 10638 10637 10635 10631 10627 10622 10616 10612 10606 10599 10594 10593 10594 10594 10597 10599 10602 10607 10613 10619 10626
10681 10687 10693 10699 10699 10698 10706 10707 10706 10704 10703 10702 10696 10692 10686 10678 10674 10669 10665 10660 10658 10655 10651 10647 10641 10639 10637 10637 10637 10637 10636 10634 10628 10624 10619 10614 10609 10603 10597 10597 10598 10598 10599 10602 10605 10611 10617 10621 10627
10671 10680 10682 10689 10692 10693 10695 10700 10702 10698 10698 10695 10692 10688 10683 10676 10671 10667 10662 10659 10657 10654 10649 10645 10641 10639 10638 10638 10639 10639 10637 10635 10630 10626 10621 10617 10613 10607 10603 10601 10601 10604 10605 10605 10609 10613 10619 10624 10630
10665 10667 10677 10681 10680 10683 10689 10694 10695 10696 10696 10694 10691 10686 10679 10672 10667 10664 10661 10658 10655 10652 10648 10644 10641 10640 10639 10640 10640 10640 10639 10636 10633 10628 10623 10620 10616 10613 10609 10607 10607 10609 10610 10612 10615 10618 10621 10628 10634
10654 10662 10664 10666 10672 10677 10683 10689 10689 10692 10692 10690 10686 10681 10677 10670 10664 10661 10659 10655 10653 10651 10647 10644 10641 10640 10639 10640 10642 10642 10640 10637 10635 10633 10626 10623 10619 10619 10618 10614 10613 10614 10615 10616 10619 10623 10626 10631 10638
10640 10645 10649 10656 10665 10671 10678 10682 10682 10686 10687 10687 10682 10679 10672 10666 10663 10659 10656 10653 10652 10650 10647 10645 10641 10640 10640 10642 10643 10642 10641 10639 10638 10637 10632 10627 10626 10625 10624 10623 10621 10622 10621 10623 10626 10629 10632 10636 10643